Logan, UT

1:19 PM MDT on April 27, 2017 (GMT -0600)
Logan-Cache

Weather History for KLGU - June, 2013

Change the Weather History Date:

Friday, June 14, 2013

  Actual Average Record
Temperature  
Mean Temperature 57 °F -  
Max Temperature 71 °F 76 °F 93 °F (1974)
Min Temperature 44 °F 46 °F 33 °F (2001)
Degree Days  
Heating Degree Days 8    
Growing Degree Days 7 (Base 50)    
Moisture  
Dew Point 31 °F    
Average Humidity 41    
Maximum Humidity 74    
Minimum Humidity 14    
Precipitation  
Precipitation 0.00 in - - ()
Sea Level Pressure  
Sea Level Pressure 30.04 in    
Wind  
Wind Speed 4 mph (North)    
Max Wind Speed 9 mph    
Max Gust Speed -    
Visibility 10 miles    
Events      
Averages and records for this station are not official NWS values.
T = Trace of Precipitation, MM = Missing Value Source: NWS Daily Summary

Daily Weather History Graph

Daily Weather History Graph

Search for Another Location

Airport or City:

Trip Planner

Search our weather history database for the weather conditions in past years. The results will help you decide how hot, cold, wet, or windy it might be!

Date:

Astronomy

Jun. 14, 2013 Rise Set
Actual Time 5:51 AM MDT 9:03 PM MDT
Civil Twilight 5:17 AM MDT 9:37 PM MDT
Nautical Twilight 4:33 AM MDT 10:21 PM MDT
Astronomical Twilight 3:40 AM MDT 11:14 PM MDT
Moon 11:35 AM MDT (6/14) 12:07 AM MDT (6/14)
Length of Visible Light 16h 20m
Length of Day
15h 11m
Waxing Crescent, 31% of the Moon is Illuminated
Jun 14
Waxing Crescent
Jun 16
First Quarter
Jun 23
Full
Jun 29
Last Quarter
Jul 8
New

Hourly Weather History & Observations

Time (MDT) Temp. Windchill Dew Point Humidity Pressure Visibility Wind Dir Wind Speed Gust Speed Precip Events Conditions
12:51 AM 55.0 °F - 42.1 °F 62% 29.93 in 10.0 mi Calm Calm - N/A   Clear
1:51 AM 50.0 °F - 42.1 °F 74% 29.95 in 10.0 mi NNW 6.9 mph - N/A   Clear
2:51 AM 48.0 °F - 37.0 °F 66% 29.96 in 10.0 mi NNW 9.2 mph - N/A   Clear
3:51 AM 48.9 °F - 34.0 °F 56% 30.00 in 10.0 mi NE 5.8 mph - N/A   Clear
4:51 AM 44.1 °F 40.1 °F 34.0 °F 68% 30.03 in 10.0 mi NNW 6.9 mph - N/A   Clear
5:51 AM 46.0 °F 43.1 °F 34.0 °F 63% 30.07 in 10.0 mi NW 5.8 mph - N/A   Clear
6:51 AM 48.0 °F - 35.1 °F 61% 30.09 in 10.0 mi SSW 3.5 mph - N/A   Clear
7:51 AM 51.1 °F - 36.0 °F 56% 30.12 in 10.0 mi NE 3.5 mph - N/A   Clear
8:51 AM 55.9 °F - 32.0 °F 40% 30.11 in 10.0 mi NE 6.9 mph - N/A   Clear
9:51 AM 57.0 °F - 30.0 °F 36% 30.12 in 10.0 mi NW 3.5 mph - N/A   Clear
10:51 AM 59.0 °F - 28.0 °F 31% 30.11 in 10.0 mi Variable 4.6 mph - N/A   Clear
11:51 AM 62.1 °F - 28.0 °F 28% 30.09 in 10.0 mi Calm Calm - N/A   Clear
12:51 PM 64.0 °F - 28.9 °F 27% 30.09 in 10.0 mi Variable 3.5 mph - N/A   Clear
1:51 PM 66.0 °F - 26.1 °F 22% 30.08 in 10.0 mi North 5.8 mph - N/A   Clear
2:51 PM 68.0 °F - 23.0 °F 18% 30.06 in 10.0 mi Calm Calm - N/A   Clear
3:51 PM 68.0 °F - 19.0 °F 15% 30.04 in 10.0 mi Variable 3.5 mph - N/A   Clear
4:51 PM 69.1 °F - 18.0 °F 14% 30.03 in 10.0 mi Calm Calm - N/A   Clear
5:51 PM 70.0 °F - 19.9 °F 15% 30.02 in 10.0 mi Calm Calm - N/A   Clear
6:51 PM 69.1 °F - 21.9 °F 17% 30.01 in 10.0 mi Calm Calm - N/A   Clear
7:51 PM 63.0 °F - 30.9 °F 30% 30.02 in 10.0 mi NNE 4.6 mph - N/A   Clear
8:51 PM 59.0 °F - 32.0 °F 36% 30.01 in 10.0 mi East 4.6 mph - N/A   Clear
9:51 PM 57.9 °F - 28.9 °F 33% 30.03 in 10.0 mi NNE 3.5 mph - N/A   Clear
10:51 PM 52.0 °F - 36.0 °F 54% 30.04 in 10.0 mi Calm Calm - N/A   Clear
11:51 PM 52.0 °F - 36.0 °F 54% 30.04 in 10.0 mi Calm Calm - N/A   Clear